Date String (YYYY-MM-DD hh:mm:ss) UTC,Instrument flags,Ambient pressure (hPa),Sample flow (lpm),Bypass flow (lpm),Sample temperature (°C),Ambient temperature (°C),ASC tube jacket temperature (°C),LED temperature (°C),Box temperature (°C),Sample RH (%),Span deviation,Mass concentration (μg/m³),Mass concentration (μg/m³),Mass concentration (μg/m³)
DateTimeUTC,F1_M11,P_M11,Q1_M11,Q2_M11,T1_M11,T2_M11,T3_M11,T4_M11,T5_M11,U1_M11,ZSPAN_M11,X0_M11,X2_M11,X1_M11
2021-12-26 20:00:00,,0806.6,5.00,0.00,22.1,21.4,00.0,31.2,23.8,09.9,0000.0,0000.95,0000.35,0000.15
2021-12-26 20:01:00,,0806.6,4.98,0.00,22.1,21.4,00.0,31.2,23.8,09.9,0000.0,0000.93,0000.36,0000.15
2021-12-26 20:02:00,,0806.7,5.00,0.00,22.1,21.4,00.0,31.2,23.8,09.9,0000.0,0000.91,0000.34,0000.16
2021-12-26 20:03:00,,0806.7,5.01,0.00,22.1,21.3,00.0,31.2,23.8,09.9,0000.0,0001.21,0000.35,0000.17
2021-12-26 20:04:00,,0806.7,5.00,0.00,22.1,21.3,00.0,31.2,23.8,10.0,0000.0,0001.60,0000.35,0000.17
2021-12-26 20:05:00,,0806.6,5.00,0.00,22.1,21.3,00.0,31.2,23.8,10.1,0000.0,0001.56,0000.37,0000.17
2021-12-26 20:06:00,,0806.6,4.99,0.00,22.1,21.2,00.0,31.2,23.7,10.1,0000.0,0001.62,0000.39,0000.16
2021-12-26 20:07:00,,0806.5,5.00,0.00,22.1,21.2,00.0,31.2,23.7,10.1,0000.0,0001.52,0000.40,0000.17
2021-12-26 20:08:00,,0806.5,5.00,0.00,22.1,21.2,00.0,31.2,23.7,09.9,0000.0,0001.47,0000.39,0000.17
2021-12-26 20:09:00,,0806.5,4.99,0.00,22.1,21.2,00.0,31.1,23.6,10.0,0000.0,0001.46,0000.39,0000.17
2021-12-26 20:10:00,,0806.5,5.01,0.00,22.1,21.1,00.0,31.1,23.6,10.1,0000.0,0001.85,0000.42,0000.17
2021-12-26 20:11:00,,0806.5,5.00,0.00,22.1,21.1,00.0,31.1,23.7,10.0,0000.0,0004.43,0000.40,0000.17
2021-12-26 20:12:00,,0806.4,5.00,0.00,22.1,21.1,00.0,31.1,23.7,09.9,0000.0,0004.75,0000.39,0000.16
2021-12-26 20:13:00,,0806.4,5.00,0.00,22.1,21.2,00.0,31.1,23.8,10.0,0000.0,0004.76,0000.39,0000.16
2021-12-26 20:14:00,,0806.5,5.00,0.00,22.1,21.2,00.0,31.1,23.7,10.1,0000.0,0004.46,0000.38,0000.16
2021-12-26 20:15:00,,0806.5,5.00,0.00,22.1,21.1,00.0,31.1,23.7,10.1,0000.0,0004.01,0000.36,0000.16
2021-12-26 20:16:00,,0806.5,5.01,0.00,22.1,21.2,00.0,31.1,23.7,09.9,0000.0,0003.98,0000.35,0000.16
2021-12-26 20:17:00,,0806.5,4.99,0.00,22.1,21.2,00.0,31.1,23.7,09.8,0000.0,0003.97,0000.35,0000.16
2021-12-26 20:18:00,,0806.4,5.01,0.00,22.1,21.3,00.0,31.1,23.7,09.9,0000.0,0004.07,0000.36,0000.16
2021-12-26 20:19:00,,0806.4,5.00,0.00,22.0,21.3,00.0,31.1,23.6,10.0,0000.0,0004.22,0000.38,0000.16
2021-12-26 20:20:00,,0806.4,4.99,0.00,22.0,21.3,00.0,31.1,23.7,10.1,0000.0,0004.26,0000.40,0000.15
2021-12-26 20:21:00,,0806.4,5.00,0.00,22.0,21.3,00.0,31.1,23.7,10.2,0000.0,0003.84,0000.37,0000.15
2021-12-26 20:22:00,,0806.4,5.00,0.00,22.0,21.3,00.0,31.1,23.7,10.0,0000.0,0001.24,0000.38,0000.16
2021-12-26 20:23:00,,0806.4,5.00,0.00,22.0,21.3,00.0,31.1,23.7,09.9,0000.0,0000.99,0000.41,0000.17
2021-12-26 20:24:00,,0806.4,4.99,0.00,22.0,21.3,00.0,31.1,23.7,09.8,0000.0,0001.04,0000.43,0000.17
2021-12-26 20:25:00,,0806.4,5.00,0.00,22.0,21.3,00.0,31.1,23.6,09.7,0000.0,0001.16,0000.46,0000.17
2021-12-26 20:26:00,,0806.4,5.01,0.00,22.0,21.3,00.0,31.1,23.6,09.6,0000.0,0001.20,0000.48,0000.18
2021-12-26 20:27:00,,0806.4,4.99,0.00,22.0,21.3,00.0,31.1,23.6,09.4,0000.0,0001.15,0000.46,0000.18
2021-12-26 20:28:00,,0806.3,4.99,0.00,22.0,21.3,00.0,31.1,23.6,09.5,0000.0,0001.13,0000.46,0000.18
2021-12-26 20:29:00,,0806.3,5.00,0.00,22.0,21.3,00.0,31.1,23.6,09.5,0000.0,0001.05,0000.46,0000.18
2021-12-26 20:30:00,,0806.4,4.99,0.00,22.0,21.3,00.0,31.1,23.6,09.5,0000.0,0000.88,0000.42,0000.17
2021-12-26 20:31:00,,0806.3,5.00,0.00,22.0,21.3,00.0,31.1,23.6,09.5,0000.0,0000.80,0000.38,0000.17
2021-12-26 20:32:00,,0806.2,5.00,0.00,22.0,21.3,00.0,31.1,23.6,09.4,0000.0,0000.78,0000.38,0000.17
2021-12-26 20:33:00,,0806.2,5.00,0.00,22.0,21.3,00.0,31.1,23.6,09.3,0000.0,0000.78,0000.38,0000.16
2021-12-26 20:34:00,,0806.2,4.99,0.00,22.0,21.2,00.0,31.1,23.6,09.3,0000.0,0000.76,0000.37,0000.15
2021-12-26 20:35:00,,0806.2,5.00,0.00,21.9,21.2,00.0,31.0,23.5,09.3,0000.0,0000.74,0000.36,0000.16
2021-12-26 20:36:00,,0806.2,5.01,0.00,21.9,21.2,00.0,31.0,23.5,09.3,0000.0,0000.59,0000.31,0000.15
2021-12-26 20:37:00,,0806.2,5.01,0.00,21.9,21.2,00.0,31.0,23.5,09.4,0000.0,0000.89,0000.33,0000.15
2021-12-26 20:38:00,,0806.2,5.01,0.00,21.9,21.2,00.0,31.0,23.5,09.3,0000.0,0002.26,0000.35,0000.16
2021-12-26 20:39:00,,0806.2,4.99,0.00,21.9,21.2,00.0,31.0,23.5,09.0,0000.0,0002.23,0000.34,0000.16
2021-12-26 20:40:00,,0806.2,5.00,0.00,21.9,21.2,00.0,31.0,23.4,09.0,0000.0,0002.26,0000.34,0000.16
2021-12-26 20:41:00,,0806.3,5.00,0.00,21.8,21.2,00.0,31.0,23.4,08.9,0000.0,0002.31,0000.37,0000.16
2021-12-26 20:42:00,,0806.3,5.00,0.00,21.8,21.2,00.0,31.0,23.4,09.0,0000.0,0002.41,0000.39,0000.16
2021-12-26 20:43:00,,0806.3,4.99,0.00,21.8,21.1,00.0,31.0,23.4,09.1,0000.0,0002.42,0000.40,0000.16
2021-12-26 20:44:00,,0806.3,5.00,0.00,21.8,21.1,00.0,31.0,23.4,09.2,0000.0,0002.45,0000.41,0000.17
2021-12-26 20:45:00,,0806.3,5.01,0.00,21.8,21.1,00.0,30.9,23.4,09.3,0000.0,0002.47,0000.40,0000.17
2021-12-26 20:46:00,,0806.3,5.01,0.00,21.8,21.1,00.0,30.9,23.4,09.2,0000.0,0002.47,0000.40,0000.17
2021-12-26 20:47:00,,0806.3,5.00,0.00,21.8,21.1,00.0,30.9,23.3,09.1,0000.0,0002.50,0000.41,0000.17
2021-12-26 20:48:00,,0806.3,4.98,0.00,21.8,21.1,00.0,30.9,23.3,09.1,0000.0,0002.47,0000.41,0000.18
2021-12-26 20:49:00,,0806.3,5.00,0.00,21.7,21.1,00.0,30.9,23.3,09.0,0000.0,0000.89,0000.40,0000.18
2021-12-26 20:50:00,,0806.2,5.00,0.00,21.7,21.1,00.0,30.9,23.3,09.0,0000.0,0000.91,0000.41,0000.18
2021-12-26 20:51:00,,0806.3,5.00,0.00,21.7,21.1,00.0,30.9,23.3,09.1,0000.0,0000.95,0000.43,0000.18
2021-12-26 20:52:00,,0806.4,4.99,0.00,21.7,21.0,00.0,30.9,23.3,09.1,0000.0,0000.97,0000.43,0000.18
2021-12-26 20:53:00,,0806.4,5.00,0.00,21.7,21.0,00.0,30.8,23.2,09.1,0000.0,0000.92,0000.42,0000.19
2021-12-26 20:54:00,,0806.4,5.02,0.00,21.7,21.0,00.0,30.8,23.2,09.0,0000.0,0000.94,0000.42,0000.19
2021-12-26 20:55:00,,0806.4,5.00,0.00,21.6,21.0,00.0,30.8,23.2,09.3,0000.0,0001.10,0000.44,0000.18
2021-12-26 20:56:00,,0806.3,4.99,0.00,21.6,20.9,00.0,30.8,23.2,09.3,0000.0,0001.12,0000.45,0000.19
2021-12-26 20:57:00,,0806.2,5.02,0.00,21.6,20.9,00.0,30.8,23.2,09.2,0000.0,0001.16,0000.45,0000.19
2021-12-26 20:58:00,,0806.1,5.01,0.00,21.6,20.9,00.0,30.8,23.2,09.2,0000.0,0001.22,0000.46,0000.19
2021-12-26 20:59:00,,0806.2,4.99,0.00,21.6,20.9,00.0,30.8,23.2,09.2,0000.0,0001.27,0000.48,0000.18
